Hourly Data Report for June 23, 2021

WESTERN HEAD
NOVA SCOTIA
Current Station Operator: ECCC - MSC

43°59'24.070" N
64°39'51.008" W
10.10 m
8206240
71411
WWE

Download Data

Hourly Data (June 2021)
Hourly Data Report for June 23, 2021
TIME
LST
Temp Definition
°C
Dew Point Definition
°C
Rel Hum Definition
%
Precip. Amount Definition
mm

Wind Dir Definition
10's deg

Wind Spd Definition
km/h
Visibility Definition
km
Stn Press Definition
kPa
Hmdx Definition


Wind Chill Definition


Weather Definition


00:00 11.0 11.0 100 0.0 20 11   100.50     LegendNANA
01:00 11.6 11.6 100 0.0 21 9   100.44     LegendNANA
02:00 11.3 11.3 100 0.0 21 8   100.34     LegendNANA
03:00 13.6 13.6 100 1.9 22 20   100.31     LegendNANA
04:00 11.9 11.9 100 1.9 20 27   100.25     LegendNANA
05:00 11.0 11.0 100 0.0 25 11   100.32     LegendNANA
06:00 17.2 17.2 100 0.3 30 15   100.43     LegendNANA
07:00 17.8 LegendMM LegendMM 0.0 30 18   100.68     LegendNANA
08:00 18.8 LegendMM LegendMM 0.0 29 21   100.84     LegendNANA
09:00 19.3 LegendMM LegendMM 0.0 30 20   100.96     LegendNANA
10:00 19.3 15.4 79 0.0 29 17   101.10     LegendNANA
11:00 20.6 15.3 72 0.0 29 16   101.19 25   LegendNANA
12:00 22.1 14.3 61 0.0 27 17   101.26 26   LegendNANA
13:00 21.8 13.6 60 0.0 28 15   101.34 25   LegendNANA
14:00 23.2 13.3 54 0.0 26 18   101.40 26   LegendNANA
15:00 23.3 11.5 47 0.0 27 18   101.48 25   LegendNANA
16:00 23.5 10.8 45 0.0 28 15   101.56 25   LegendNANA
17:00 22.4 9.7 44 0.0 30 17   101.66     LegendNANA
18:00 20.7 10.1 51 0.0 30 14   101.77     LegendNANA
19:00 18.7 9.3 54 0.0 31 19   101.90     LegendNANA
20:00 14.7 8.3 65 0.0 28 10   102.03     LegendNANA
21:00 11.9 8.4 79 0.0 28 9   102.15     LegendNANA
22:00 12.2 8.7 79 0.0 26 13   102.24     LegendNANA
23:00 11.9 9.1 83 0.0 28 15   102.30     LegendNANA

Notes on Data Quality.

Legend

  • E = Estimated
  • M = Missing
  • NA = Not Available*
  • [empty] = Indicates an unobserved value
Date modified: